Location: Unspecified
(0.0000°N, 0.0000°E)
Time: 11:23:53
(UTC+00:00)

A-11 Canister half - Pass Details

Date: 21 November 2019
Orbit: 1526 x 1683 km, 47.3° (Epoch: 07 December)

Event Time Altitude Azimuth Distance (km) Brightness Sun altitude
Rises 22:29:27 0° 270° (W) 4,670 11.8 -62.6°
Enters shadow 22:34:40 - 245° (WSW) 3,834 11.3 -63.5°
Exits shadow 22:41:28 - 203° (SSW) 3,837 11.3 -64.5°
Sets 22:46:59 0° 176° (S) 4,721 11.8 -65.3°
